User: anonymous
Location: Great Northern Moose Lodge
(44.6765°N, 71.1811°W)
Time: 01:56:48
(UTC-04:00)
Language:

Terra - Orbit

View from above orbital plane
View from above orbital plane
View from above satellite
View from above satellite

Ground track
Ground track

The orbit data is extracted from the following two-line orbital elements,

1 25994U 99068A   14262.38533722  .00000455  00000-0  11109-3 0  6300
2 25994 098.2034 335.7859 0001631 095.7682 264.3707 14.57126825784789
Epoch (UTC): 19 September 2014 09:14:53
Eccentricity: 0.0001631
inclination: 98.2034°
perigee height: 701 km
apogee height: 703 km
right ascension of ascending node: 335.7859°
argument of perigee: 95.7682°
revolutions per day: 14.57126825
mean anomaly at epoch: 264.3707°
orbit number at epoch: 78478

The dashed part of the orbit path shows where the satellite is in the earth's shadow,  

DLR